User: anonymous
Location: Laverne
(36.7100°N, 99.8930°W)
Time: 16:15:58
(UTC-05:00)
Language:

Iridium 32 - Orbit

View from above orbital plane
View from above orbital plane
View from above satellite
View from above satellite

Ground track
Ground track

The orbit data is extracted from the following two-line orbital elements,

1 24945U 97051B   14211.48339230  .00000081  00000-0  21927-4 0  9373
2 24945 086.3975 007.1302 0002147 109.3566 250.7862 14.34216777883530
Epoch (UTC): 30 July 2014 11:36:05
Eccentricity: 0.0002147
inclination: 86.3975°
perigee height: 776 km
apogee height: 779 km
right ascension of ascending node: 7.1302°
argument of perigee: 109.3566°
revolutions per day: 14.34216777
mean anomaly at epoch: 250.7862°
orbit number at epoch: 88353

The dashed part of the orbit path shows where the satellite is in the earth's shadow,  

DLR